Flag for Kazakhstan Weather past 2 weeks in Almaty, Kazakhstan

Now
59 °F

Partly sunny.


Feels Like: 60 °F
Forecast: 45 / 60 °F
Wind: 3 mph from Southeast

Location: Almaty Airport

Current Time: Sep 18, 2014 at 8:28:04 AM

Latest Report: Sep 18, 2014 at 8:00 AM


Visibility: N/A

Pressure: 29.71 "Hg

Humidity: 48%

Dew point: 39 °F

Location of AlmatyLocation

Historic Weather in Almaty — Graph

°F

Almaty temperature yesterday

Maximum temperature yesterday: 84 °F (at 4:00 PM)
Minimum temperature yesterday: 48 °F (at 3:30 AM)
Average temperature yesterday: 66 °F

Past Weeks' High & Low Weather Summary

 TemperatureHumidityPressure
High86 °F (Sep 8, 3:00 PM)88% (Sep 16, 2:00 AM)30.27 "Hg (Sep 16, 2:00 AM)
Low36 °F (Sep 12, 6:30 AM)7% (Sep 9, 2:00 PM)29.68 "Hg (Sep 18, 5:00 AM)
Average62 °F35%29.97 "Hg
* Reported Sep 3 7:00 AM — Sep 18 7:30 AM, Almaty, Weather by CustomWeather, © 2014

Note: Actual official high and low records may vary slightly from our data, if they occured in-between our weather recording intervals... More about our weather records

Advertising

Almaty weather history for previous 24 hours

 ConditionsComfort  
Time TempWeatherWind HumidityBarometerVisibility
7:30 AM
Sep 18
57 °FPartly sunny.3 mph55%29.71 "HgN/A
7:00 AM57 °FPartly sunny.3 mph51%29.71 "HgN/A
6:30 AM54 °FPartly sunny.1 mph58%29.68 "HgN/A
6:00 AM52 °FScattered clouds.1 mph62%29.68 "HgN/A
5:30 AM54 °FPassing clouds.1 mph58%29.68 "HgN/A
5:00 AM55 °FPassing clouds.3 mph51%29.68 "HgN/A
4:30 AM54 °FPassing clouds.6 mph58%29.71 "HgN/A
4:00 AM55 °FPassing clouds.6 mph55%29.71 "HgN/A
3:30 AM55 °FPassing clouds.1 mph55%29.71 "HgN/A
3:00 AM55 °FPassing clouds.3 mph59%29.74 "HgN/A
2:30 AM57 °FPassing clouds.3 mph55%29.74 "HgN/A
2:00 AM57 °FPassing clouds.6 mph55%29.74 "HgN/A
1:30 AM57 °FPassing clouds.3 mph55%29.77 "HgN/A
1:00 AM59 °FPassing clouds.3 mph55%29.77 "Hg3 mi
12:30 AM61 °FPassing clouds.1 mph52%29.80 "Hg3 mi
12:00 AM63 °FPassing clouds.3 mph49%29.80 "Hg3 mi
11:30 PM
Sep 17
64 °FPassing clouds.3 mph43%29.80 "Hg3 mi
11:00 PM68 °FPassing clouds.3 mph30%29.80 "HgN/A
10:30 PM70 °FPassing clouds.8 mph29%29.80 "HgN/A
10:00 PM70 °FPassing clouds.10 mph29%29.80 "HgN/A
9:30 PM68 °FPassing clouds.3 mph30%29.80 "Hg3 mi
9:00 PM70 °FPassing clouds.3 mph29%29.83 "Hg3 mi
8:30 PM68 °FPassing clouds.3 mph33%29.83 "Hg3 mi
8:00 PM70 °FPassing clouds.6 mph35%29.80 "Hg3 mi
7:30 PM72 °FPassing clouds.6 mph36%29.80 "Hg3 mi
7:00 PM73 °FPassing clouds.3 mph31%29.80 "Hg3 mi
6:30 PM77 °FPassing clouds.6 mph28%29.80 "HgN/A
6:00 PM81 °FPassing clouds.8 mph21%29.80 "HgN/A
5:30 PM81 °FPassing clouds.8 mph21%29.80 "HgN/A
5:00 PM82 °FPassing clouds.8 mph20%29.80 "HgN/A
4:30 PM84 °FPassing clouds.3 mph18%29.80 "HgN/A
4:00 PM84 °FScattered clouds.6 mph18%29.80 "HgN/A
3:30 PM82 °FScattered clouds.3 mph19%29.80 "HgN/A
3:00 PM82 °FScattered clouds.3 mph19%29.80 "HgN/A
2:30 PM81 °FScattered clouds.6 mph20%29.80 "HgN/A
2:00 PM81 °FScattered clouds.3 mph20%29.83 "HgN/A
1:30 PM79 °FScattered clouds.3 mph23%29.83 "HgN/A
1:00 PM79 °FPartly sunny.6 mph21%29.83 "HgN/A
12:30 PM77 °FPartly sunny.8 mph26%29.83 "HgN/A
12:00 PM77 °FPartly sunny.6 mph26%29.83 "HgN/A
11:30 AM75 °FPartly sunny.3 mph25%29.86 "HgN/A
11:00 AM72 °FPartly sunny.3 mph29%29.86 "HgN/A
10:30 AM72 °FScattered clouds.1 mph31%29.86 "HgN/A
10:00 AM68 °FScattered clouds.1 mph38%29.86 "HgN/A
9:30 AM66 °FScattered clouds.3 mph43%29.86 "HgN/A
9:00 AM63 °FPartly sunny.1 mph49%29.86 "HgN/A
8:30 AM59 °FBroken clouds.3 mph55%29.89 "HgN/A
8:00 AM59 °FBroken clouds.3 mph59%29.86 "HgN/A
Weather by CustomWeather, © 2014

See weather overviewHow to use our weather pages